When you browse on this site, cookies collect data to enhance your experience and personalize the content and advertising you see.
Visit our Privacy Policy to learn more. By continuing to use the site, you agree to this use of cookies and data.
  • In Hungary
  • List of Countries
  • For 7 days
  • Water Temperature
  • Weather Map
  • News
  • Weather Widgets
  • user-avatar
    Login

    Hourly Weather Nebizhka

    Today, 31 May, Sunday

    Time Temperature Precipitation Wind Pressure Humidity
    00:00 +12°C° 0.5 mm 7 mps 731 mmHg 97%
    01:00 +13°C° 0.5 mm 6 mps 731 mmHg 96%
    02:00 +13°C° 0 mm 5 mps 732 mmHg 95%
    03:00 +13°C° 0 mm 5 mps 732 mmHg 94%
    04:00 +11°C° 0 mm 6 mps 732 mmHg 94%
    05:00 +10°C° 0 mm 6 mps 732 mmHg 94%
    06:00 +10°C° 0 mm 6 mps 733 mmHg 93%
    07:00 +10°C° 0 mm 6 mps 734 mmHg 92%
    08:00 +10°C° 0 mm 6 mps 734 mmHg 91%
    09:00 +11°C° 0 mm 6 mps 735 mmHg 88%
    10:00 +12°C° 0 mm 7 mps 736 mmHg 85%
    11:00 +12°C° 0 mm 7 mps 736 mmHg 83%
    12:00 +14°C° 0.1 mm 6 mps 737 mmHg 81%
    13:00 +15°C° 0.1 mm 6 mps 737 mmHg 80%
    14:00 +15°C° 0.1 mm 5 mps 738 mmHg 78%
    15:00 +15°C° 0.5 mm 6 mps 738 mmHg 81%
    16:00 +15°C° 0.5 mm 7 mps 738 mmHg 85%
    17:00 +14°C° 0.5 mm 7 mps 738 mmHg 88%
    18:00 +14°C° 0.4 mm 7 mps 739 mmHg 90%
    19:00 +12°C° 0.4 mm 7 mps 739 mmHg 92%
    20:00 +11°C° 0.4 mm 7 mps 739 mmHg 94%
    21:00 +11°C° 0 mm 7 mps 740 mmHg 93%
    22:00 +11°C° 0 mm 6 mps 740 mmHg 92%
    23:00 +11°C° 0 mm 6 mps 741 mmHg 91%

    Tomorrow, 1 June, Monday

    Time Temperature Precipitation Wind Pressure Humidity
    00:00 +10°C° 0 mm 6 mps 741 mmHg 91%
    01:00 +9°C° 0 mm 5 mps 741 mmHg 92%
    02:00 +8°C° 0 mm 5 mps 741 mmHg 92%
    03:00 +8°C° 0 mm 5 mps 742 mmHg 92%
    04:00 +8°C° 0 mm 5 mps 742 mmHg 93%
    05:00 +7°C° 0 mm 5 mps 742 mmHg 93%
    06:00 +8°C° 0 mm 6 mps 742 mmHg 89%
    07:00 +9°C° 0 mm 6 mps 743 mmHg 85%
    08:00 +10°C° 0 mm 6 mps 743 mmHg 81%
    09:00 +11°C° 0.1 mm 7 mps 743 mmHg 75%
    10:00 +12°C° 0.1 mm 7 mps 743 mmHg 69%
    11:00 +12°C° 0.1 mm 7 mps 743 mmHg 63%
    12:00 +12°C° 0.1 mm 7 mps 743 mmHg 64%
    13:00 +12°C° 0.1 mm 7 mps 743 mmHg 64%
    14:00 +12°C° 0.1 mm 7 mps 743 mmHg 65%
    15:00 +11°C° 0.1 mm 6 mps 743 mmHg 66%
    16:00 +11°C° 0.1 mm 6 mps 743 mmHg 68%
    17:00 +11°C° 0.1 mm 6 mps 743 mmHg 69%
    18:00 +10°C° 0.1 mm 5 mps 743 mmHg 73%
    19:00 +8°C° 0.1 mm 5 mps 743 mmHg 77%
    20:00 +7°C° 0.1 mm 4 mps 742 mmHg 82%
    21:00 +7°C° 0 mm 4 mps 742 mmHg 84%
    22:00 +6°C° 0 mm 4 mps 742 mmHg 87%
    23:00 +5°C° 0 mm 4 mps 742 mmHg 89%

    Day after tomorrow, 2 June, Tuesday

    Time Temperature Precipitation Wind Pressure Humidity
    00:00 +5°C° 0 mm 4 mps 741 mmHg 90%
    01:00 +5°C° 0 mm 5 mps 741 mmHg 91%
    02:00 +3°C° 0 mm 5 mps 740 mmHg 92%
    03:00 +5°C° 0 mm 5 mps 740 mmHg 90%
    04:00 +4°C° 0 mm 6 mps 739 mmHg 88%
    05:00 +4°C° 0 mm 6 mps 739 mmHg 87%
    06:00 +5°C° 0.3 mm 7 mps 738 mmHg 87%
    07:00 +5°C° 0.3 mm 8 mps 738 mmHg 87%
    08:00 +6°C° 0.3 mm 8 mps 738 mmHg 87%
    09:00 +6°C° 1.3 mm 8 mps 737 mmHg 89%
    10:00 +6°C° 1.3 mm 8 mps 737 mmHg 91%
    11:00 +6°C° 1.3 mm 8 mps 736 mmHg 94%
    12:00 +6°C° 0.9 mm 8 mps 736 mmHg 94%
    13:00 +6°C° 0.9 mm 8 mps 736 mmHg 94%
    14:00 +6°C° 0.9 mm 8 mps 735 mmHg 94%
    15:00 +6°C° 2 mm 8 mps 735 mmHg 95%
    16:00 +7°C° 2 mm 8 mps 735 mmHg 95%
    17:00 +7°C° 2 mm 8 mps 735 mmHg 96%
    18:00 +8°C° 0.7 mm 7 mps 734 mmHg 95%
    19:00 +8°C° 0.7 mm 7 mps 734 mmHg 95%
    20:00 +9°C° 0.7 mm 6 mps 734 mmHg 94%
    21:00 +9°C° 0.1 mm 6 mps 734 mmHg 95%
    22:00 +8°C° 0.1 mm 6 mps 734 mmHg 95%
    23:00 +8°C° 0.1 mm 6 mps 734 mmHg 96%

    3 June, Wednesday

    Time Temperature Precipitation Wind Pressure Humidity
    00:00 +8°C° 0.1 mm 5 mps 734 mmHg 96%
    01:00 +8°C° 0.1 mm 5 mps 734 mmHg 96%
    02:00 +7°C° 0.1 mm 4 mps 734 mmHg 96%
    03:00 +7°C° 0.1 mm 4 mps 734 mmHg 96%
    04:00 +7°C° 0.1 mm 3 mps 734 mmHg 97%
    05:00 +7°C° 0.1 mm 3 mps 734 mmHg 97%
    06:00 +8°C° 0 mm 3 mps 734 mmHg 94%
    07:00 +9°C° 0 mm 3 mps 734 mmHg 90%
    08:00 +10°C° 0 mm 4 mps 735 mmHg 87%
    09:00 +11°C° 0.4 mm 3 mps 735 mmHg 84%
    10:00 +11°C° 0.4 mm 3 mps 735 mmHg 82%
    11:00 +12°C° 0.4 mm 3 mps 735 mmHg 79%
    12:00 +12°C° 0.6 mm 3 mps 735 mmHg 80%
    13:00 +12°C° 0.6 mm 3 mps 735 mmHg 80%
    14:00 +12°C° 0.6 mm 3 mps 735 mmHg 81%
    15:00 +13°C° 0.4 mm 3 mps 735 mmHg 80%
    16:00 +13°C° 0.4 mm 3 mps 735 mmHg 78%
    17:00 +14°C° 0.4 mm 3 mps 735 mmHg 77%
    18:00 +13°C° 0.4 mm 3 mps 735 mmHg 82%
    19:00 +12°C° 0.4 mm 3 mps 735 mmHg 87%
    20:00 +11°C° 0.4 mm 3 mps 735 mmHg 92%
    21:00 +10°C° 0.1 mm 3 mps 735 mmHg 93%
    22:00 +9°C° 0.1 mm 3 mps 736 mmHg 95%
    23:00 +9°C° 0.1 mm 3 mps 736 mmHg 96%

    4 June, Thursday

    Time Temperature Precipitation Wind Pressure Humidity
    00:00 +8°C° 0 mm 3 mps 736 mmHg 96%
    01:00 +8°C° 0 mm 3 mps 736 mmHg 96%
    02:00 +8°C° 0 mm 3 mps 736 mmHg 97%
    03:00 +8°C° 0.1 mm 3 mps 736 mmHg 97%
    04:00 +8°C° 0.1 mm 3 mps 736 mmHg 97%
    05:00 +7°C° 0.1 mm 4 mps 736 mmHg 97%
    06:00 +8°C° 0 mm 4 mps 736 mmHg 94%
    07:00 +11°C° 0 mm 4 mps 736 mmHg 91%
    08:00 +12°C° 0 mm 4 mps 736 mmHg 88%
    09:00 +13°C° 0.5 mm 4 mps 736 mmHg 84%
    10:00 +15°C° 0.5 mm 4 mps 736 mmHg 80%
    11:00 +17°C° 0.5 mm 4 mps 736 mmHg 76%
    12:00 +16°C° 0.6 mm 5 mps 736 mmHg 75%
    13:00 +17°C° 0.6 mm 5 mps 735 mmHg 73%
    14:00 +17°C° 0.6 mm 5 mps 735 mmHg 71%
    15:00 +17°C° 0.3 mm 5 mps 735 mmHg 72%
    16:00 +18°C° 0.3 mm 4 mps 735 mmHg 72%
    17:00 +18°C° 0.3 mm 4 mps 735 mmHg 73%
    18:00 +17°C° 0.2 mm 3 mps 735 mmHg 77%
    19:00 +16°C° 0.2 mm 2 mps 734 mmHg 80%
    20:00 +14°C° 0.2 mm 1 mps 734 mmHg 84%
    21:00 +14°C° 0 mm 2 mps 734 mmHg 86%
    22:00 +13°C° 0 mm 2 mps 734 mmHg 88%
    23:00 +11°C° 0 mm 3 mps 734 mmHg 90%

    5 June, Friday

    Time Temperature Precipitation Wind Pressure Humidity
    00:00 +12°C° 0.1 mm 3 mps 733 mmHg 91%
    01:00 +12°C° 0.1 mm 3 mps 733 mmHg 91%
    02:00 +12°C° 0.1 mm 4 mps 732 mmHg 92%
    03:00 +12°C° 1 mm 3 mps 732 mmHg 93%
    04:00 +12°C° 1 mm 3 mps 731 mmHg 95%
    05:00 +12°C° 1 mm 3 mps 730 mmHg 97%
    06:00 +13°C° 0.7 mm 4 mps 731 mmHg 95%
    07:00 +13°C° 0.7 mm 6 mps 731 mmHg 93%
    08:00 +12°C° 0.7 mm 7 mps 731 mmHg 92%
    09:00 +13°C° 0.1 mm 8 mps 732 mmHg 88%
    10:00 +13°C° 0.1 mm 9 mps 733 mmHg 85%
    11:00 +13°C° 0.1 mm 10 mps 733 mmHg 81%
    12:00 +13°C° 0 mm 10 mps 734 mmHg 79%
    13:00 +14°C° 0 mm 10 mps 734 mmHg 76%
    14:00 +15°C° 0 mm 9 mps 735 mmHg 73%
    15:00 +15°C° 0.1 mm 8 mps 735 mmHg 73%
    16:00 +15°C° 0.1 mm 8 mps 735 mmHg 73%
    17:00 +15°C° 0.1 mm 7 mps 736 mmHg 72%
    18:00 +14°C° 0 mm 6 mps 736 mmHg 76%
    19:00 +13°C° 0 mm 5 mps 736 mmHg 79%
    20:00 +11°C° 0 mm 4 mps 736 mmHg 83%
    21:00 +10°C° 0 mm 4 mps 737 mmHg 84%
    22:00 +8°C° 0 mm 4 mps 738 mmHg 85%
    23:00 +7°C° 0 mm 4 mps 738 mmHg 86%
    Show more